FW3585 Weather Reports


Display with metric or nautical units.
time (UTC)temp
F
wind
direction
speed
MPH
gust
MPH
rain 1hr
in
rain 24hr
in
rain mn
in
humidity
%
barometer
mb
20260510100101 53 36 0.0 2.0 0.00 0.00 0.00 85 1013.4
20260510094538 54 36 0.0 2.0 0.00 0.00 0.00 85 1013.2
20260510093045 55 36 0.0 1.0 0.00 0.00 0.00 84 1013.0
20260510091539 55 38 1.0 4.0 0.00 0.00 0.00 85 1013.0
20260510090038 54 94 1.0 3.0 0.00 0.00 0.00 88 1013.0
20260510084535 54 104 0.0 2.0 0.00 0.00 0.00 89 1012.9
20260510083033 55 104 1.0 3.0 0.00 0.00 0.00 88 1012.9
20260510081529 55 155 1.0 2.0 0.00 0.00 0.00 87 1012.6
20260510080027 56 155 0.0 2.0 0.00 0.00 0.00 87 1012.4
20260510074526 56 155 0.0 2.0 0.00 0.00 0.00 88 1012.2
20260510073024 56 155 0.0 2.0 0.00 0.00 0.00 87 1012.2
20260510071534 56 155 0.0 2.0 0.00 0.00 0.00 87 1012.1
20260510070020 57 157 0.0 1.0 0.00 0.00 0.00 87 1012.0
20260510064517 58 157 0.0 2.0 0.00 0.00 0.00 85 1012.2
20260510063020 59 158 0.0 2.0 0.00 0.00 0.00 85 1012.2
20260510061526 59 158 0.0 2.0 0.00 0.00 0.00 84 1012.4
20260510060012 60 158 0.0 3.0 0.00 0.00 0.00 83 1012.4
20260510054508 60 158 3.0 5.0 0.00 0.00 0.00 80 1012.4
20260510053007 61 184 0.0 3.0 0.00 0.00 0.00 79 1012.5
20260510051507 61 184 1.0 4.0 0.00 0.00 0.00 79 1012.3
20260510050005 61 215 2.0 4.0 0.00 0.00 0.00 78 1012.4
20260510044504 60 202 0.0 2.0 0.00 0.00 0.00 78 1012.4
20260510043003 61 195 0.0 2.0 0.00 0.00 0.00 79 1012.3
20260510041602 61 195 1.0 3.0 0.00 0.00 0.00 79 1012.3
20260510040103 61 196 1.0 3.0 0.00 0.00 0.00 78 1012.3
20260510034609 62 196 2.0 3.0 0.00 0.00 0.00 77 1012.1
20260510033114 63 201 0.0 3.0 0.00 0.00 0.00 76 1012.0
20260510031559 64 200 0.0 2.0 0.00 0.00 0.00 75 1011.8
20260510030056 65 199 0.0 3.0 0.00 0.00 0.00 74 1011.9
20260510024559 65 197 0.0 3.0 0.00 0.00 0.00 74 1011.9
20260510023056 66 253 0.0 6.0 0.00 0.00 0.00 73 1011.7
20260510021555 66 222 3.0 5.0 0.00 0.00 0.00 72 1011.6
20260510020055 67 192 3.0 6.0 0.00 0.00 0.00 71 1011.2
20260510014554 67 221 4.0 7.0 0.00 0.00 0.00 71 1010.9
20260510013055 67 202 2.0 6.0 0.00 0.00 0.00 69 1010.6
20260510011556 68 192 0.0 2.0 0.00 0.00 0.00 65 1010.2
20260510010053 69 190 0.0 2.0 0.00 0.00 0.00 64 1010.0
20260510004552 69 190 0.0 3.0 0.00 0.00 0.00 62 1009.9
20260510003151 70 181 1.0 4.0 0.00 0.00 0.00 60 1009.7
20260510001550 71 181 1.0 4.0 0.00 0.00 0.00 58 1009.6
20260510000053 72 199 0.0 5.0 0.00 0.00 0.00 56 1009.3
20260509234601 73 214 1.0 4.0 0.00 0.00 0.00 55 1009.3
20260509233049 73 225 2.0 5.0 0.00 0.00 0.00 54 1009.0
20260509231553 73 214 5.0 8.0 0.00 0.00 0.00 53 1008.9
20260509230056 74 237 3.0 5.0 0.00 0.00 0.00 53 1008.8
20260509224547 75 227 3.0 12.0 0.00 0.00 0.00 51 1008.9
20260509223049 74 213 3.0 11.0 0.00 0.00 0.00 52 1008.9
20260509221547 76 227 2.0 7.0 0.00 0.00 0.00 51 1009.0
20260509220046 75 222 3.0 6.0 0.00 0.00 0.00 50 1008.8
20260509214546 75 240 3.0 11.0 0.00 0.00 0.00 51 1008.8
20260509213046 76 214 9.0 17.0 0.00 0.00 0.00 49 1008.7
20260509211544 75 295 8.0 13.0 0.00 0.00 0.00 49 1008.6
20260509210049 74 200 2.0 11.0 0.00 0.00 0.00 50 1008.5
20260509204543 74 197 5.0 15.0 0.00 0.00 0.00 50 1008.6
20260509203041 75 232 8.0 14.0 0.00 0.00 0.00 48 1008.7
20260509201541 75 255 2.0 12.0 0.00 0.00 0.00 52 1008.6
20260509200041 75 189 4.0 15.0 0.00 0.00 0.00 50 1008.6
20260509194537 74 246 3.0 14.0 0.00 0.00 0.00 54 1008.7
20260509193032 73 227 5.0 12.0 0.00 0.00 0.00 52 1009.1
20260509191532 72 228 5.0 16.0 0.00 0.00 0.00 55 1009.2
20260509190031 71 183 6.0 15.0 0.00 0.00 0.00 55 1009.4
20260509184528 71 178 3.0 13.0 0.00 0.00 0.00 53 1009.5
20260509183028 72 182 7.0 15.0 0.00 0.00 0.00 52 1009.8
20260509181539 72 223 9.0 16.0 0.00 0.00 0.00 54 1009.9
20260509180022 70 223 12.0 18.0 0.00 0.00 0.00 56 1010.3
20260509174622 71 229 13.0 22.0 0.00 0.01 0.00 59 1010.4
20260509173023 69 236 4.0 17.0 0.00 0.01 0.00 63 1010.7
20260509171514 69 202 10.0 19.0 0.00 0.01 0.00 63 1010.8
20260509170012 68 350 5.0 13.0 0.00 0.01 0.00 65 1010.9
20260509164512 68 209 6.0 17.0 0.00 0.01 0.00 64 1011.1
20260509163009 68 214 9.0 16.0 0.00 0.01 0.00 64 1011.1
20260509161507 68 197 3.0 15.0 0.00 0.01 0.00 66 1011.1
20260509160008 67 236 9.0 21.0 0.00 0.01 0.00 64 1011.3
20260509154504 67 232 4.0 10.0 0.00 0.01 0.00 66 1011.5
20260509153001 67 313 10.0 17.0 0.00 0.01 0.00 66 1011.2
20260509151559 66 111 4.0 10.0 0.00 0.01 0.00 67 1011.6
20260509150055 64 188 7.0 12.0 0.00 0.01 0.00 68 1012.0
20260509144551 63 244 6.0 19.0 0.00 0.01 0.00 69 1012.2
20260509143049 63 205 6.0 11.0 0.00 0.01 0.00 69 1012.2
20260509141544 61 175 3.0 8.0 0.00 0.01 0.00 71 1011.8
20260509140043 60 185 3.0 10.0 0.00 0.01 0.00 71 1012.2
20260509134534 58 170 4.0 10.0 0.00 0.01 0.00 72 1012.7
20260509133034 58 177 3.0 10.0 0.00 0.01 0.00 72 1012.7
20260509131530 57 160 2.0 6.0 0.00 0.01 0.00 73 1012.8
20260509130029 55 146 3.0 7.0 0.00 0.01 0.00 77 1013.0
20260509124525 54 175 1.0 7.0 0.00 0.01 0.00 78 1013.1
20260509123025 52 136 3.0 5.0 0.00 0.01 0.00 78 1013.0
20260509121525 51 142 2.0 7.0 0.00 0.01 0.00 77 1012.9
20260509120018 51 152 2.0 6.0 0.00 0.01 0.00 78 1013.0
20260509114512 50 151 3.0 7.0 0.00 0.01 0.00 78 1013.0
20260509113008 50 151 3.0 7.0 0.00 0.01 0.00 77 1013.2
20260509111506 49 146 3.0 6.0 0.00 0.01 0.00 77 1013.1
20260509110002 49 146 3.0 6.0 0.00 0.01 0.00 77 1012.5
20260509104559 49 134 2.0 8.0 0.00 0.01 0.00 77 1012.6
20260509103101 48 142 3.0 7.0 0.00 0.01 0.00 77 1012.7
20260509101557 48 165 4.0 8.0 0.00 0.01 0.00 76 1012.8